| time (UTC) | temp C | wind direction | speed KPH | gust KPH | rain 1hr cm | rain 24hr cm | rain mn cm | humidity % | barometer mb |
| 20260506073007 | 12 | 250 | 8.0 | 0.0 | 0.00 | 0.00 | 0.00 | 66 | 1007.3 |
| 20260506071507 | 12 | 254 | 8.0 | 0.0 | 0.00 | 0.00 | 0.00 | 67 | 1007.4 |
| 20260506061501 | 13 | 244 | 6.4 | 0.0 | 0.00 | 0.00 | 0.03 | 64 | 1006.7 |
| 20260506050114 | 13 | 231 | 4.8 | 0.0 | 0.00 | 0.00 | 0.03 | 62 | 1006.0 |
| 20260506044602 | 14 | 255 | 4.8 | 0.0 | 0.00 | 0.00 | 0.03 | 60 | 1005.8 |
| 20260506043058 | 14 | 251 | 1.6 | 0.0 | 0.00 | 0.00 | 0.03 | 60 | 1005.6 |
| 20260506041558 | 14 | 252 | 1.6 | 0.0 | 0.00 | 0.00 | 0.03 | 61 | 1005.4 |
| 20260506040100 | 14 | 252 | 8.0 | 0.0 | 0.00 | 0.00 | 0.03 | 59 | 1005.2 |
| 20260506034557 | 15 | 250 | 8.0 | 0.0 | 0.00 | 0.00 | 0.03 | 59 | 1004.9 |
| 20260506033056 | 15 | 202 | 6.4 | 0.0 | 0.00 | 0.00 | 0.03 | 56 | 1004.8 |
| 20260506031601 | 15 | 208 | 6.4 | 0.0 | 0.00 | 0.00 | 0.03 | 56 | 1004.6 |
| 20260506030111 | 15 | 259 | 9.7 | 0.0 | 0.00 | 0.00 | 0.03 | 55 | 1004.6 |
| 20260506024555 | 16 | 217 | 8.0 | 0.0 | 0.00 | 0.00 | 0.03 | 53 | 1004.3 |
| 20260506023054 | 17 | 227 | 9.7 | 0.0 | 0.00 | 0.00 | 0.03 | 48 | 1004.3 |
| 20260506021553 | 19 | 217 | 4.8 | 0.0 | 0.00 | 0.00 | 0.03 | 40 | 1004.2 |
| 20260506020052 | 20 | 360 | 4.8 | 0.0 | 0.00 | 0.00 | 0.03 | 35 | 1004.1 |
| 20260506014558 | 20 | 5 | 4.8 | 0.0 | 0.00 | 0.00 | 0.03 | 36 | 1004.1 |
| 20260506013051 | 20 | 5 | 6.4 | 0.0 | 0.00 | 0.00 | 0.03 | 34 | 1004.1 |
| 20260506011556 | 20 | 9 | 6.4 | 0.0 | 0.00 | 0.00 | 0.03 | 35 | 1004.3 |
| 20260506010054 | 20 | 28 | 4.8 | 0.0 | 0.00 | 0.00 | 0.03 | 35 | 1004.4 |
| 20260506004622 | 20 | 12 | 4.8 | 0.0 | 0.00 | 0.00 | 0.03 | 35 | 1004.4 |
| 20260506003048 | 20 | 350 | 4.8 | 0.0 | 0.00 | 0.00 | 0.03 | 37 | 1004.5 |
| 20260506001547 | 20 | 18 | 4.8 | 0.0 | 0.00 | 0.00 | 0.03 | 36 | 1004.5 |
| 20260506000047 | 20 | 150 | 8.0 | 0.0 | 0.00 | 0.00 | 0.03 | 37 | 1004.6 |
| 20260505234606 | 19 | 158 | 6.4 | 0.0 | 0.00 | 0.00 | 0.03 | 39 | 1004.6 |
| 20260505233043 | 19 | 272 | 8.0 | 0.0 | 0.00 | 0.00 | 0.03 | 38 | 1004.8 |
| 20260505231543 | 19 | 25 | 4.8 | 0.0 | 0.00 | 0.00 | 0.03 | 40 | 1004.9 |
| 20260505230039 | 19 | 355 | 4.8 | 0.0 | 0.00 | 0.00 | 0.03 | 40 | 1005.0 |
| 20260505224538 | 18 | 73 | 6.4 | 0.0 | 0.00 | 0.00 | 0.03 | 43 | 1005.3 |
| 20260505223046 | 18 | 301 | 4.8 | 0.0 | 0.00 | 0.00 | 0.03 | 43 | 1005.5 |
| 20260505221532 | 18 | 111 | 6.4 | 0.0 | 0.00 | 0.00 | 0.03 | 48 | 1005.8 |
| 20260505220030 | 17 | 53 | 3.2 | 0.0 | 0.00 | 0.00 | 0.03 | 45 | 1006.0 |
| 20260505214537 | 17 | 24 | 4.8 | 0.0 | 0.00 | 0.00 | 0.03 | 46 | 1006.1 |
| 20260505213026 | 17 | 19 | 6.4 | 0.0 | 0.00 | 0.00 | 0.03 | 47 | 1006.1 |
| 20260505211525 | 17 | 334 | 4.8 | 0.0 | 0.00 | 0.00 | 0.03 | 46 | 1006.4 |
| 20260505210023 | 16 | 345 | 6.4 | 0.0 | 0.00 | 0.00 | 0.03 | 53 | 1006.6 |
| 20260505204526 | 16 | 22 | 6.4 | 0.0 | 0.00 | 0.00 | 0.03 | 54 | 1006.9 |
| 20260505203017 | 15 | 67 | 3.2 | 0.0 | 0.00 | 0.00 | 0.03 | 55 | 1006.8 |
| 20260505201517 | 15 | 355 | 4.8 | 0.0 | 0.00 | 0.00 | 0.03 | 61 | 1006.9 |
| 20260505200022 | 15 | 49 | 4.8 | 0.0 | 0.00 | 0.00 | 0.03 | 62 | 1007.1 |
| 20260505194511 | 15 | 87 | 4.8 | 0.0 | 0.00 | 0.00 | 0.03 | 64 | 1007.2 |
| 20260505193011 | 14 | 28 | 4.8 | 0.0 | 0.00 | 0.00 | 0.03 | 64 | 1007.2 |
| 20260505191510 | 14 | 360 | 6.4 | 0.0 | 0.00 | 0.00 | 0.03 | 66 | 1007.2 |
| 20260505190006 | 13 | 49 | 4.8 | 0.0 | 0.00 | 0.00 | 0.03 | 71 | 1007.1 |
| 20260505184503 | 13 | 32 | 3.2 | 0.0 | 0.00 | 0.00 | 0.03 | 71 | 1007.1 |
| 20260505183101 | 12 | 86 | 3.2 | 0.0 | 0.00 | 0.00 | 0.03 | 72 | 1007.2 |
| 20260505181556 | 12 | 85 | 4.8 | 0.0 | 0.00 | 0.00 | 0.03 | 76 | 1007.3 |
| 20260505180053 | 11 | 139 | 1.6 | 0.0 | 0.00 | 0.00 | 0.03 | 77 | 1007.1 |
| 20260505174550 | 10 | 154 | 1.6 | 0.0 | 0.00 | 0.00 | 0.03 | 80 | 1007.0 |
| 20260505173049 | 10 | 180 | 0.0 | 0.0 | 0.00 | 0.00 | 0.03 | 84 | 1007.0 |
| 20260505171544 | 9 | 180 | 1.6 | 0.0 | 0.00 | 0.00 | 0.03 | 85 | 1006.8 |
| 20260505170040 | 9 | 180 | 0.0 | 0.0 | 0.00 | 0.00 | 0.03 | 87 | 1006.7 |
| 20260505164538 | 8 | 180 | 1.6 | 0.0 | 0.00 | 0.00 | 0.03 | 88 | 1006.7 |
| 20260505163036 | 8 | 205 | 3.2 | 0.0 | 0.00 | 0.00 | 0.03 | 90 | 1006.7 |
| 20260505161534 | 8 | 252 | 1.6 | 0.0 | 0.00 | 0.00 | 0.03 | 90 | 1006.5 |
| 20260505153028 | 7 | 262 | 0.0 | 0.0 | 0.00 | 0.00 | 0.03 | 91 | 1006.2 |
| 20260505151525 | 7 | 262 | 0.0 | 0.0 | 0.00 | 0.00 | 0.03 | 92 | 1006.1 |
| 20260505124516 | 6 | 261 | 1.6 | 0.0 | 0.00 | 0.00 | 0.03 | 95 | 1004.6 |
| 20260505123016 | 6 | 261 | 0.0 | 0.0 | 0.00 | 0.00 | 0.03 | 95 | 1004.5 |
| 20260505121516 | 6 | 261 | 0.0 | 0.0 | 0.00 | 0.00 | 0.03 | 95 | 1004.5 |
| 20260505120014 | 6 | 260 | 0.0 | 0.0 | 0.00 | 0.00 | 0.03 | 95 | 1004.5 |
| 20260505114514 | 6 | 261 | 0.0 | 0.0 | 0.00 | 0.00 | 0.03 | 95 | 1004.5 |
| 20260505113013 | 6 | 261 | 0.0 | 0.0 | 0.00 | 0.00 | 0.03 | 95 | 1004.4 |
| 20260505111513 | 6 | 261 | 0.0 | 0.0 | 0.00 | 0.00 | 0.03 | 95 | 1004.3 |
| 20260505101518 | 6 | 260 | 0.0 | 0.0 | 0.00 | 0.00 | 0.03 | 94 | 1004.5 |
| 20260505100011 | 6 | 260 | 0.0 | 0.0 | 0.00 | 0.00 | 0.03 | 95 | 1004.7 |
| 20260505094518 | 6 | 260 | 0.0 | 0.0 | 0.00 | 0.00 | 0.03 | 94 | 1004.7 |
| 20260505093007 | 6 | 260 | 0.0 | 0.0 | 0.00 | 0.00 | 0.03 | 93 | 1004.8 |
| 20260505091507 | 6 | 260 | 0.0 | 0.0 | 0.00 | 0.00 | 0.03 | 93 | 1004.9 |
| 20260505090005 | 6 | 260 | 0.0 | 0.0 | 0.00 | 0.00 | 0.03 | 94 | 1004.9 |
| 20260505084504 | 6 | 260 | 0.0 | 0.0 | 0.00 | 0.00 | 0.03 | 94 | 1005.1 |
| 20260505083004 | 6 | 260 | 1.6 | 0.0 | 0.00 | 0.00 | 0.03 | 94 | 1005.5 |
| 20260505081503 | 6 | 260 | 0.0 | 0.0 | 0.00 | 0.00 | 0.03 | 94 | 1005.4 |